QPF
0.00 0.01 0.01 0.01 0.01 0.00 0.00 0.00 0.00 0.00 0.00 0.00 0.00 0.00 0.00 0.00 0.00 0.00 0.00 0.00 0.00 0.00 0.00 0.00 0.00 0.02 0.02 0.02 0.03 0.03 0.03 0.02 0.04 0.07 0.08 0.08 0.08 0.07 0.06 0.06 0.04 0.03 0.02 0.01
0.00 0.00 0.00 0.00 0.00 0.00 0.00 0.00 0.00 0.00 0.00 0.00 0.00 0.00 0.00 0.00 0.00 0.00 0.00 0.00 0.00 0.00 0.00 0.01 0.00 0.01 0.03 0.03 0.02 0.02 0.02 0.03 0.04 0.07 0.07 0.06 0.05 0.04 0.04 0.05 0.04 0.02 0.02 0.01
0.00 0.00 0.00 0.00 0.00 0.00 0.00 0.00 0.00 0.01 0.00 0.00 0.01 0.01 0.01 0.00 0.00 0.00 0.00 0.00 0.00 0.00 0.00 0.00 0.01 0.01 0.03 0.03 0.02 0.02 0.02 0.02 0.02 0.04 0.04 0.04 0.04 0.04 0.04 0.05 0.04 0.03 0.02 0.01
0.00 0.00 0.00 0.00 0.00 0.00 0.00 0.00 0.00 0.02 0.01 0.01 0.01 0.01 0.02 0.01 0.00 0.00 0.00 0.00 0.00 0.00 0.00 0.00 0.01 0.01 0.03 0.04 0.03 0.02 0.01 0.01 0.01 0.02 0.03 0.03 0.04 0.04 0.04 0.04 0.04 0.03 0.02 0.01
0.00 0.00 0.00 0.00 0.00 0.00 0.00 0.00 0.01 0.04 0.02 0.01 0.00 0.00 0.01 0.01 0.00 0.00 0.00 0.00 0.00 0.00 0.00 0.00 0.01 0.02 0.03 0.04 0.04 0.02 0.01 0.01 0.01 0.01 0.03 0.03 0.02 0.02 0.02 0.02 0.02 0.02 0.01 0.01
0.00 0.00 0.00 0.00 0.00 0.00 0.00 0.00 0.01 0.02 0.02 0.01 0.00 0.00 0.00 0.00 0.00 0.00 0.00 0.00 0.00 0.00 0.00 0.00 0.01 0.02 0.02 0.02 0.03 0.02 0.01 0.00 0.01 0.01 0.02 0.02 0.01 0.01 0.02 0.02 0.02 0.03 0.03 0.02
0.00 0.00 0.00 0.00 0.00 0.00 0.00 0.01 0.01 0.01 0.01 0.00 0.00 0.00 0.00 0.00 0.00 0.01 0.01 0.00 0.00 0.00 0.00 0.00 0.00 0.01 0.02 0.02 0.03 0.02 0.00 0.00 0.01 0.01 0.01 0.02 0.01 0.01 0.01 0.02 0.02 0.02 0.03 0.04
0.00 0.00 0.00 0.00 0.00 0.00 0.00 0.01 0.02 0.03 0.02 0.01 0.01 0.01 0.01 0.00 0.00 0.00 0.00 0.00 0.00 0.00 0.00 0.00 0.00 0.00 0.01 0.02 0.02 0.01 0.00 0.01 0.01 0.01 0.02 0.03 0.04 0.04 0.03 0.03 0.03 0.03 0.04 0.05
0.00 0.00 0.00 0.00 0.00 0.00 0.00 0.00 0.01 0.01 0.02 0.01 0.02 0.01 0.01 0.00 0.00 0.00 0.00 0.00 0.00 0.00 0.00 0.00 0.00 0.00 0.01 0.02 0.03 0.02 0.01 0.01 0.01 0.01 0.03 0.04 0.06 0.10 0.08 0.06 0.05 0.06 0.08 0.08
0.00 0.00 0.00 0.00 0.00 0.00 0.00 0.00 0.00 0.00 0.02 0.02 0.01 0.01 0.01 0.01 0.01 0.01 0.00 0.00 0.00 0.00 0.00 0.00 0.00 0.00 0.01 0.01 0.04 0.04 0.02 0.02 0.01 0.01 0.02 0.04 0.05 0.08 0.08 0.08 0.07 0.08 0.11 0.09
0.00 0.00 0.00 0.00 0.00 0.00 0.00 0.00 0.00 0.00 0.01 0.02 0.01 0.01 0.00 0.01 0.00 0.00 0.00 0.00 0.00 0.00 0.00 0.00 0.00 0.01 0.01 0.01 0.04 0.05 0.04 0.03 0.03 0.02 0.02 0.03 0.05 0.06 0.05 0.05 0.06 0.07 0.10 0.07
0.00 0.00 0.00 0.00 0.00 0.00 0.00 0.00 0.00 0.00 0.00 0.00 0.02 0.01 0.00 0.00 0.00 0.00 0.00 0.00 0.00 0.00 0.00 0.00 0.00 0.00 0.01 0.01 0.02 0.05 0.05 0.03 0.03 0.03 0.04 0.04 0.04 0.04 0.04 0.03 0.03 0.04 0.04 0.03
0.00 0.00 0.00 0.00 0.00 0.00 0.00 0.00 0.00 0.00 0.00 0.00 0.01 0.01 0.00 0.00 0.00 0.00 0.00 0.00 0.00 0.00 0.00 0.00 0.00 0.00 0.00 0.01 0.01 0.04 0.04 0.04 0.02 0.03 0.05 0.05 0.04 0.04 0.03 0.02 0.02 0.01 0.01 0.02
0.00 0.00 0.00 0.00 0.00 0.00 0.00 0.00 0.00 0.00 0.00 0.00 0.00 0.00 0.00 0.00 0.00 0.00 0.00 0.00 0.00 0.00 0.00 0.00 0.00 0.00 0.00 0.01 0.01 0.02 0.02 0.03 0.04 0.04 0.05 0.05 0.05 0.04 0.03 0.02 0.01 0.01 0.01 0.01
0.00 0.00 0.00 0.00 0.00 0.00 0.00 0.00 0.00 0.00 0.00 0.00 0.00 0.00 0.00 0.00 0.00 0.00 0.00 0.00 0.00 0.00 0.00 0.00 0.00 0.00 0.00 0.01 0.01 0.01 0.01 0.01 0.02 0.03 0.04 0.04 0.04 0.04 0.03 0.02 0.01 0.01 0.01 0.02
0.00 0.00 0.00 0.00 0.00 0.00 0.00 0.00 0.00 0.00 0.00 0.00 0.00 0.00 0.00 0.00 0.01 0.01 0.00 0.00 0.00 0.00 0.00 0.00 0.00 0.00 0.00 0.01 0.01 0.01 0.01 0.01 0.01 0.01 0.01 0.02 0.02 0.03 0.02 0.02 0.02 0.02 0.02 0.03
0.00 0.00 0.00 0.00 0.00 0.00 0.00 0.00 0.00 0.00 0.00 0.00 0.00 0.00 0.00 0.00 0.00 0.00 0.00 0.00 0.00 0.00 0.00 0.00 0.01 0.00 0.01 0.01 0.01 0.01 0.01 0.01 0.01 0.01 0.02 0.02 0.02 0.02 0.02 0.02 0.02 0.02 0.02 0.02
0.00 0.00 0.00 0.00 0.00 0.00 0.00 0.00 0.00 0.00 0.00 0.00 0.00 0.00 0.00 0.00 0.00 0.00 0.00 0.00 0.00 0.00 0.00 0.01 0.01 0.01 0.01 0.01 0.01 0.01 0.01 0.01 0.01 0.01 0.02 0.02 0.02 0.02 0.02 0.02 0.03 0.03 0.03 0.02
0.00 0.00 0.00 0.00 0.00 0.00 0.00 0.00 0.00 0.00 0.00 0.00 0.00 0.00 0.00 0.00 0.01 0.01 0.00 0.00 0.00 0.00 0.00 0.01 0.01 0.01 0.01 0.01 0.01 0.00 0.00 0.01 0.02 0.02 0.02 0.02 0.03 0.03 0.02 0.02 0.04 0.04 0.04 0.04
0.00 0.00 0.00 0.00 0.00 0.00 0.00 0.00 0.00 0.00 0.00 0.00 0.00 0.00 0.00 0.00 0.01 0.02 0.01 0.00 0.00 0.00 0.00 0.01 0.01 0.01 0.00 0.01 0.01 0.01 0.01 0.01 0.01 0.01 0.02 0.02 0.03 0.02 0.02 0.03 0.05 0.07 0.07 0.08
0.00 0.00 0.00 0.00 0.00 0.00 0.00 0.00 0.00 0.00 0.01 0.00 0.00 0.00 0.00 0.00 0.00 0.01 0.00 0.00 0.00 0.00 0.00 0.00 0.00 0.01 0.01 0.01 0.01 0.01 0.01 0.01 0.02 0.02 0.02 0.02 0.02 0.02 0.02 0.02 0.03 0.04 0.04 0.05
0.01 0.01 0.01 0.01 0.01 0.00 0.00 0.00 0.00 0.00 0.00 0.00 0.00 0.00 0.00 0.00 0.00 0.00 0.00 0.00 0.01 0.01 0.01 0.01 0.01 0.02 0.03 0.02 0.02 0.02 0.02 0.01 0.02 0.02 0.02 0.01 0.01 0.01 0.01 0.02 0.02 0.02 0.02 0.03
0.00 0.00 0.01 0.01 0.00 0.00 0.00 0.00 0.00 0.00 0.00 0.00 0.00 0.01 0.00 0.00 0.00 0.00 0.00 0.01 0.02 0.02 0.02 0.02 0.03 0.03 0.03 0.03 0.03 0.02 0.02 0.02 0.02 0.02 0.02 0.01 0.01 0.00 0.01 0.01 0.01 0.01 0.01 0.02
0.01 0.01 0.00 0.01 0.00 0.00 0.00 0.00 0.00 0.00 0.00 0.01 0.02 0.01 0.01 0.01 0.01 0.01 0.01 0.01 0.02 0.02 0.01 0.01 0.03 0.04 0.03 0.02 0.03 0.03 0.03 0.02 0.02 0.02 0.02 0.01 0.01 0.00 0.00 0.00 0.01 0.02 0.02 0.02
0.02 0.02 0.03 0.03 0.02 0.01 0.00 0.00 0.00 0.00 0.01 0.01 0.02 0.02 0.02 0.02 0.01 0.01 0.01 0.01 0.01 0.01 0.01 0.01 0.02 0.04 0.05 0.03 0.02 0.02 0.02 0.02 0.02 0.02 0.02 0.01 0.00 0.00 0.00 0.00 0.01 0.03 0.04 0.04
0.02 0.03 0.04 0.05 0.05 0.02 0.01 0.00 0.00 0.00 0.00 0.00 0.01 0.02 0.02 0.02 0.01 0.01 0.01 0.01 0.01 0.01 0.01 0.01 0.01 0.02 0.04 0.03 0.02 0.01 0.02 0.02 0.02 0.02 0.02 0.02 0.00 0.01 0.00 0.00 0.01 0.05 0.06 0.06
MSLP
1003.57 1003.89 1004.14 1004.35 1004.58 1004.86 1005.25 1005.75 1006.35 1007.01 1007.67 1008.27 1008.74 1009.07 1009.24 1009.27 1009.22 1009.13 1009.04 1008.99 1009.00 1009.06 1009.17 1009.30 1009.45 1009.61 1009.77 1009.95 1010.15 1010.38 1010.63 1010.90 1011.16 1011.38 1011.54 1011.62 1011.64 1011.59 1011.52 1011.44 1011.41 1011.42 1011.51 1011.67
1003.91 1004.03 1004.10 1004.16 1004.29 1004.54 1004.95 1005.52 1006.22 1006.97 1007.70 1008.33 1008.79 1009.08 1009.18 1009.14 1009.03 1008.91 1008.83 1008.83 1008.91 1009.05 1009.23 1009.42 1009.60 1009.74 1009.88 1010.01 1010.17 1010.39 1010.66 1010.97 1011.30 1011.61 1011.86 1012.03 1012.08 1012.04 1011.93 1011.78 1011.66 1011.59 1011.60 1011.70
1004.12 1004.04 1003.91 1003.83 1003.87 1004.10 1004.55 1005.21 1006.01 1006.86 1007.66 1008.31 1008.76 1008.98 1008.99 1008.87 1008.69 1008.53 1008.46 1008.51 1008.68 1008.94 1009.24 1009.53 1009.76 1009.94 1010.06 1010.17 1010.29 1010.47 1010.73 1011.06 1011.43 1011.81 1012.13 1012.36 1012.46 1012.44 1012.31 1012.11 1011.92 1011.77 1011.71 1011.76
1004.19 1003.92 1003.64 1003.45 1003.44 1003.68 1004.20 1004.95 1005.86 1006.81 1007.66 1008.32 1008.72 1008.84 1008.74 1008.48 1008.19 1007.97 1007.88 1007.97 1008.24 1008.62 1009.06 1009.48 1009.82 1010.07 1010.22 1010.32 1010.42 1010.56 1010.79 1011.12 1011.51 1011.92 1012.30 1012.59 1012.74 1012.74 1012.62 1012.40 1012.17 1011.96 1011.85 1011.85
1004.10 1003.71 1003.33 1003.08 1003.07 1003.36 1003.97 1004.84 1005.86 1006.89 1007.78 1008.42 1008.74 1008.73 1008.46 1008.04 1007.59 1007.25 1007.10 1007.19 1007.52 1008.01 1008.60 1009.17 1009.65 1010.01 1010.23 1010.36 1010.46 1010.58 1010.79 1011.09 1011.48 1011.92 1012.34 1012.68 1012.88 1012.93 1012.83 1012.62 1012.37 1012.14 1011.98 1011.95
1003.88 1003.42 1003.01 1002.76 1002.80 1003.18 1003.90 1004.89 1006.01 1007.11 1008.03 1008.63 1008.84 1008.68 1008.22 1007.58 1006.93 1006.42 1006.16 1006.20 1006.55 1007.12 1007.83 1008.55 1009.18 1009.67 1010.00 1010.20 1010.33 1010.46 1010.65 1010.94 1011.33 1011.77 1012.22 1012.60 1012.86 1012.96 1012.91 1012.73 1012.50 1012.26 1012.09 1012.02
1003.53 1003.07 1002.68 1002.50 1002.63 1003.12 1003.96 1005.06 1006.28 1007.44 1008.36 1008.90 1009.01 1008.68 1008.01 1007.15 1006.27 1005.57 1005.15 1005.10 1005.41 1006.01 1006.80 1007.64 1008.42 1009.05 1009.51 1009.81 1010.00 1010.16 1010.36 1010.65 1011.02 1011.47 1011.94 1012.36 1012.67 1012.84 1012.85 1012.73 1012.52 1012.30 1012.13 1012.04
1003.10 1002.69 1002.37 1002.29 1002.52 1003.13 1004.07 1005.27 1006.56 1007.75 1008.66 1009.16 1009.17 1008.70 1007.85 1006.78 1005.69 1004.78 1004.19 1004.01 1004.23 1004.81 1005.64 1006.56 1007.45 1008.21 1008.79 1009.20 1009.48 1009.69 1009.92 1010.21 1010.60 1011.05 1011.53 1011.98 1012.34 1012.57 1012.65 1012.59 1012.44 1012.25 1012.08 1011.98
1002.65 1002.31 1002.10 1002.11 1002.45 1003.15 1004.17 1005.42 1006.75 1007.95 1008.85 1009.30 1009.24 1008.68 1007.71 1006.49 1005.24 1004.15 1003.40 1003.06 1003.18 1003.69 1004.49 1005.44 1006.39 1007.25 1007.94 1008.45 1008.82 1009.11 1009.38 1009.70 1010.09 1010.54 1011.03 1011.51 1011.91 1012.19 1012.33 1012.33 1012.23 1012.09 1011.94 1011.84
1002.27 1002.02 1001.90 1002.00 1002.41 1003.14 1004.19 1005.44 1006.74 1007.92 1008.80 1009.23 1009.14 1008.55 1007.54 1006.26 1004.92 1003.72 1002.84 1002.37 1002.36 1002.77 1003.50 1004.42 1005.40 1006.30 1007.07 1007.68 1008.13 1008.49 1008.81 1009.16 1009.55 1010.01 1010.50 1010.98 1011.41 1011.72 1011.91 1011.97 1011.93 1011.84 1011.72 1011.64
1002.05 1001.88 1001.83 1001.99 1002.40 1003.12 1004.10 1005.28 1006.50 1007.62 1008.45 1008.87 1008.81 1008.26 1007.29 1006.04 1004.71 1003.49 1002.53 1001.97 1001.85 1002.13 1002.77 1003.62 1004.55 1005.47 1006.28 1006.94 1007.47 1007.90 1008.27 1008.65 1009.05 1009.51 1009.99 1010.46 1010.88 1011.21 1011.43 1011.54 1011.55 1011.50 1011.43 1011.37
1002.05 1001.96 1001.95 1002.10 1002.47 1003.09 1003.93 1004.96 1006.04 1007.03 1007.80 1008.22 1008.20 1007.74 1006.89 1005.77 1004.53 1003.37 1002.42 1001.81 1001.59 1001.77 1002.28 1003.03 1003.89 1004.77 1005.59 1006.29 1006.87 1007.36 1007.78 1008.19 1008.60 1009.05 1009.50 1009.95 1010.35 1010.68 1010.91 1011.05 1011.10 1011.09 1011.07 1011.06
1002.33 1002.28 1002.28 1002.38 1002.64 1003.08 1003.72 1004.52 1005.39 1006.22 1006.88 1007.27 1007.31 1006.98 1006.29 1005.35 1004.29 1003.25 1002.37 1001.76 1001.49 1001.57 1001.96 1002.59 1003.37 1004.19 1004.98 1005.70 1006.32 1006.85 1007.32 1007.76 1008.19 1008.62 1009.05 1009.46 1009.83 1010.13 1010.36 1010.50 1010.58 1010.62 1010.65 1010.69
1002.86 1002.84 1002.81 1002.81 1002.90 1003.13 1003.50 1004.01 1004.61 1005.22 1005.75 1006.08 1006.17 1005.95 1005.46 1004.73 1003.88 1003.01 1002.24 1001.68 1001.39 1001.40 1001.68 1002.20 1002.87 1003.62 1004.38 1005.10 1005.75 1006.33 1006.85 1007.32 1007.76 1008.19 1008.59 1008.96 1009.29 1009.56 1009.77 1009.91 1010.01 1010.08 1010.15 1010.25
1003.58 1003.55 1003.46 1003.35 1003.25 1003.22 1003.29 1003.48 1003.78 1004.13 1004.47 1004.72 1004.81 1004.71 1004.38 1003.87 1003.23 1002.55 1001.93 1001.44 1001.16 1001.12 1001.32 1001.73 1002.30 1002.98 1003.70 1004.41 1005.09 1005.72 1006.28 1006.80 1007.26 1007.69 1008.08 1008.42 1008.72 1008.95 1009.13 1009.27 1009.38 1009.48 1009.60 1009.74
1004.39 1004.33 1004.17 1003.92 1003.62 1003.32 1003.09 1002.96 1002.93 1003.01 1003.14 1003.27 1003.34 1003.29 1003.11 1002.77 1002.33 1001.84 1001.36 1000.96 1000.71 1000.64 1000.78 1001.10 1001.59 1002.20 1002.88 1003.59 1004.29 1004.96 1005.58 1006.14 1006.64 1007.09 1007.48 1007.81 1008.08 1008.30 1008.47 1008.60 1008.72 1008.85 1009.00 1009.19
1005.17 1005.07 1004.82 1004.43 1003.93 1003.40 1002.88 1002.44 1002.12 1001.93 1001.84 1001.83 1001.84 1001.81 1001.72 1001.53 1001.25 1000.92 1000.57 1000.26 1000.05 999.97 1000.06 1000.32 1000.73 1001.28 1001.92 1002.62 1003.34 1004.04 1004.71 1005.33 1005.88 1006.36 1006.77 1007.11 1007.39 1007.61 1007.79 1007.94 1008.08 1008.23 1008.41 1008.64
1005.82 1005.66 1005.31 1004.79 1004.13 1003.39 1002.64 1001.94 1001.37 1000.94 1000.65 1000.50 1000.43 1000.40 1000.36 1000.26 1000.11 999.90 999.66 999.43 999.25 999.17 999.23 999.43 999.79 1000.28 1000.88 1001.56 1002.28 1003.01 1003.72 1004.39 1004.99 1005.52 1005.97 1006.35 1006.66 1006.92 1007.13 1007.31 1007.49 1007.68 1007.90 1008.16
1006.28 1006.04 1005.60 1004.98 1004.19 1003.29 1002.37 1001.49 1000.72 1000.11 999.67 999.39 999.24 999.18 999.16 999.12 999.05 998.93 998.77 998.61 998.47 998.39 998.42 998.58 998.88 999.32 999.87 1000.52 1001.22 1001.96 1002.69 1003.39 1004.04 1004.62 1005.13 1005.57 1005.94 1006.25 1006.53 1006.78 1007.02 1007.26 1007.52 1007.81
1006.54 1006.21 1005.69 1004.98 1004.10 1003.11 1002.09 1001.10 1000.22 999.49 998.94 998.58 998.37 998.28 998.25 998.25 998.22 998.17 998.07 997.95 997.84 997.77 997.79 997.91 998.15 998.53 999.02 999.61 1000.28 1000.99 1001.72 1002.43 1003.11 1003.74 1004.31 1004.82 1005.27 1005.67 1006.03 1006.37 1006.69 1007.00 1007.32 1007.66
1006.62 1006.20 1005.60 1004.83 1003.91 1002.89 1001.84 1000.82 999.90 999.13 998.53 998.12 997.88 997.76 997.72 997.73 997.73 997.71 997.65 997.57 997.48 997.42 997.41 997.50 997.69 998.00 998.42 998.94 999.55 1000.21 1000.91 1001.61 1002.30 1002.96 1003.58 1004.16 1004.69 1005.19 1005.65 1006.09 1006.50 1006.90 1007.30 1007.68
1006.54 1006.04 1005.39 1004.59 1003.68 1002.68 1001.66 1000.68 999.79 999.04 998.45 998.03 997.77 997.63 997.59 997.59 997.59 997.58 997.54 997.48 997.41 997.35 997.33 997.38 997.52 997.77 998.11 998.56 999.09 999.68 1000.32 1000.99 1001.67 1002.34 1002.99 1003.63 1004.24 1004.83 1005.39 1005.92 1006.44 1006.93 1007.40 1007.85
1006.35 1005.78 1005.10 1004.31 1003.44 1002.52 1001.59 1000.70 999.89 999.21 998.67 998.27 998.01 997.86 997.79 997.77 997.76 997.74 997.70 997.64 997.57 997.51 997.48 997.50 997.61 997.79 998.07 998.43 998.88 999.40 999.97 1000.59 1001.23 1001.90 1002.57 1003.24 1003.91 1004.57 1005.21 1005.84 1006.43 1007.01 1007.55 1008.05
1006.04 1005.44 1004.77 1004.02 1003.24 1002.42 1001.62 1000.86 1000.18 999.59 999.12 998.76 998.51 998.34 998.24 998.17 998.13 998.07 998.01 997.93 997.85 997.78 997.75 997.75 997.83 997.97 998.19 998.49 998.87 999.31 999.82 1000.38 1000.99 1001.63 1002.29 1002.98 1003.68 1004.39 1005.08 1005.77 1006.43 1007.06 1007.65 1008.20
1005.62 1005.02 1004.38 1003.72 1003.04 1002.37 1001.73 1001.12 1000.58 1000.11 999.71 999.39 999.13 998.94 998.79 998.66 998.54 998.43 998.32 998.21 998.11 998.03 997.98 997.99 998.04 998.16 998.35 998.61 998.94 999.34 999.79 1000.31 1000.87 1001.49 1002.14 1002.82 1003.52 1004.24 1004.96 1005.67 1006.35 1007.01 1007.63 1008.21
1005.05 1004.49 1003.92 1003.36 1002.83 1002.32 1001.84 1001.40 1001.00 1000.63 1000.31 1000.02 999.75 999.51 999.29 999.08 998.88 998.69 998.51 998.35 998.22 998.12 998.07 998.07 998.13 998.25 998.43 998.68 998.99 999.36 999.79 1000.28 1000.82 1001.41 1002.04 1002.70 1003.39 1004.10 1004.81 1005.50 1006.18 1006.84 1007.46 1008.04
Thickness
5863 5850 5840 5851 5861 5864 5865 5857 5847 5852 5866 5859 5849 5844 5849 5854 5851 5844 5839 5835 5832 5830 5831 5830 5828 5825 5820 5815 5811 5807 5804 5803 5801 5798 5795 5792 5790 5791 5790 5789 5787 5785 5783 5782
5851 5845 5862 5872 5872 5868 5863 5852 5850 5856 5868 5859 5847 5845 5855 5858 5854 5852 5846 5841 5837 5833 5831 5829 5826 5825 5821 5816 5812 5809 5806 5804 5802 5800 5797 5795 5794 5793 5791 5790 5787 5785 5784 5782
5845 5861 5878 5872 5865 5861 5861 5856 5853 5849 5857 5860 5846 5835 5844 5855 5861 5859 5856 5852 5847 5840 5833 5830 5828 5826 5823 5818 5815 5812 5809 5806 5804 5803 5801 5798 5794 5792 5790 5787 5786 5786 5784 5783
5853 5870 5870 5864 5861 5862 5849 5868 5864 5856 5842 5836 5845 5815 5834 5845 5849 5854 5854 5853 5850 5847 5841 5836 5832 5828 5825 5822 5820 5815 5811 5808 5806 5804 5801 5796 5790 5786 5787 5787 5786 5786 5785 5783
5849 5862 5861 5858 5865 5868 5861 5872 5864 5856 5846 5838 5846 5828 5831 5848 5841 5849 5856 5857 5856 5853 5848 5841 5837 5833 5830 5828 5823 5818 5813 5809 5807 5805 5802 5797 5793 5792 5791 5789 5787 5785 5784 5783
5860 5875 5874 5871 5878 5877 5873 5864 5857 5853 5842 5819 5839 5832 5825 5845 5848 5853 5858 5861 5860 5857 5853 5847 5843 5838 5834 5831 5827 5822 5815 5810 5808 5806 5803 5799 5795 5793 5790 5788 5786 5784 5783 5782
5842 5859 5875 5880 5863 5868 5863 5839 5817 5807 5809 5818 5849 5839 5837 5861 5869 5864 5860 5863 5864 5861 5855 5849 5843 5838 5835 5831 5828 5824 5817 5811 5809 5807 5804 5801 5798 5794 5791 5789 5787 5785 5783 5780
5825 5831 5861 5870 5862 5852 5852 5841 5810 5798 5805 5824 5844 5834 5849 5871 5877 5878 5873 5870 5867 5862 5858 5853 5848 5842 5838 5834 5830 5825 5819 5813 5811 5807 5804 5802 5799 5796 5794 5791 5789 5786 5784 5782
5830 5833 5866 5873 5875 5865 5847 5844 5852 5834 5826 5821 5829 5841 5855 5871 5870 5871 5871 5869 5865 5863 5860 5855 5852 5848 5843 5838 5833 5828 5821 5815 5812 5809 5806 5802 5800 5797 5794 5792 5789 5787 5784 5783
5840 5824 5847 5866 5869 5868 5864 5860 5847 5831 5805 5802 5820 5827 5833 5846 5855 5863 5865 5865 5865 5864 5862 5857 5854 5850 5846 5842 5837 5832 5825 5818 5814 5811 5808 5805 5801 5798 5795 5792 5788 5786 5784 5782
5843 5821 5830 5845 5842 5843 5850 5849 5845 5836 5829 5808 5801 5817 5858 5853 5860 5862 5863 5864 5864 5862 5861 5856 5853 5851 5847 5843 5838 5831 5826 5820 5815 5812 5809 5806 5802 5799 5795 5791 5788 5786 5783 5780
5836 5825 5815 5833 5858 5866 5856 5849 5844 5822 5815 5821 5809 5816 5866 5866 5868 5868 5865 5865 5865 5863 5861 5856 5851 5847 5844 5839 5836 5831 5827 5822 5817 5814 5809 5806 5803 5799 5795 5791 5788 5785 5782 5780
5828 5815 5796 5806 5828 5845 5843 5848 5848 5843 5832 5819 5810 5819 5864 5864 5866 5868 5865 5863 5860 5858 5856 5851 5847 5842 5839 5836 5832 5830 5826 5823 5819 5815 5810 5805 5802 5798 5794 5791 5788 5785 5782 5779
5823 5808 5798 5792 5810 5829 5828 5835 5843 5836 5821 5818 5823 5828 5845 5850 5852 5855 5858 5858 5857 5853 5850 5845 5840 5837 5834 5832 5829 5826 5824 5822 5818 5814 5809 5803 5800 5797 5793 5791 5788 5785 5782 5778
5814 5797 5803 5811 5824 5830 5829 5830 5835 5831 5830 5822 5829 5835 5840 5846 5849 5850 5851 5851 5849 5845 5843 5839 5836 5833 5830 5828 5825 5824 5821 5819 5816 5811 5806 5802 5800 5797 5793 5790 5787 5784 5781 5778
5802 5790 5794 5797 5813 5819 5818 5826 5832 5832 5833 5831 5831 5831 5849 5850 5849 5843 5844 5844 5841 5838 5837 5836 5833 5830 5827 5824 5821 5819 5817 5815 5812 5807 5803 5801 5798 5795 5792 5789 5786 5782 5779 5776
5787 5779 5774 5778 5800 5802 5794 5816 5823 5828 5835 5833 5824 5832 5846 5840 5838 5837 5839 5838 5836 5835 5833 5831 5829 5827 5824 5821 5819 5815 5813 5812 5807 5804 5801 5798 5795 5792 5789 5787 5783 5779 5776 5773
5775 5769 5768 5771 5776 5759 5799 5833 5832 5826 5832 5838 5837 5839 5840 5838 5839 5840 5839 5834 5830 5831 5830 5828 5827 5824 5822 5820 5817 5814 5811 5807 5803 5800 5797 5795 5792 5788 5786 5783 5780 5777 5774 5771
5778 5764 5759 5761 5758 5770 5799 5818 5821 5812 5811 5830 5829 5830 5832 5835 5829 5824 5832 5832 5829 5828 5827 5826 5825 5822 5818 5815 5812 5809 5805 5802 5798 5795 5792 5791 5789 5785 5782 5779 5776 5774 5770 5767
5770 5764 5752 5752 5747 5751 5785 5814 5825 5812 5792 5819 5823 5819 5819 5818 5801 5802 5821 5824 5823 5822 5821 5821 5819 5817 5812 5810 5807 5801 5798 5795 5792 5791 5789 5788 5786 5782 5778 5776 5773 5770 5767 5764
5745 5744 5741 5742 5744 5763 5795 5810 5809 5775 5777 5806 5811 5810 5809 5803 5801 5805 5813 5812 5813 5813 5813 5814 5811 5807 5804 5803 5799 5793 5791 5789 5789 5788 5785 5783 5781 5778 5775 5772 5769 5766 5762 5759
5740 5738 5736 5739 5736 5750 5791 5795 5779 5776 5793 5797 5798 5801 5799 5798 5799 5800 5800 5800 5801 5801 5802 5802 5800 5798 5798 5797 5791 5786 5784 5786 5784 5781 5779 5776 5774 5772 5770 5765 5762 5760 5756 5752
5748 5748 5749 5745 5747 5767 5779 5777 5779 5784 5782 5784 5786 5788 5788 5786 5786 5788 5787 5788 5788 5789 5790 5791 5789 5788 5788 5788 5785 5779 5779 5779 5776 5773 5770 5768 5766 5764 5762 5758 5754 5752 5750 5747
5741 5750 5745 5741 5748 5759 5767 5771 5773 5775 5774 5777 5779 5779 5779 5776 5776 5775 5775 5776 5776 5777 5778 5779 5778 5776 5776 5778 5777 5775 5774 5772 5768 5764 5762 5760 5758 5756 5754 5751 5749 5746 5744 5742
5725 5732 5732 5729 5739 5746 5753 5757 5761 5764 5767 5768 5769 5770 5768 5766 5765 5764 5763 5764 5764 5765 5767 5768 5767 5766 5767 5769 5768 5768 5766 5763 5759 5755 5753 5752 5751 5749 5746 5744 5741 5741 5740 5738
5720 5719 5715 5715 5729 5731 5735 5746 5751 5750 5751 5754 5755 5756 5758 5757 5754 5753 5752 5753 5753 5754 5755 5755 5756 5756 5757 5759 5758 5759 5759 5756 5751 5747 5745 5745 5744 5742 5740 5737 5734 5732 5731 5729